GW3519 Weather Reports


time (UTC)temp
C
wind
direction
speed
KPH
gust
KPH
rain 1hr
cm
rain 24hr
cm
rain mn
cm
humidity
%
barometer
mb
20260507071548 11 0 0.0 0.0 0.00 0.51 0.03 85 1006.5
20260507071036 11 0 0.0 0.0 0.00 0.51 0.03 85 1006.6
20260507070535 11 0 0.0 4.8 0.00 0.51 0.03 84 1006.6
20260507070047 11 0 0.0 4.8 0.00 0.51 0.03 84 1006.7
20260507065534 11 0 0.0 3.2 0.00 0.51 0.03 84 1006.5
20260507065030 11 0 0.0 6.4 0.00 0.51 0.03 84 1006.3
20260507064545 11 0 0.0 6.4 0.00 0.51 0.03 83 1006.5
20260507064031 11 0 1.6 6.4 0.00 0.51 0.03 83 1006.5
20260507063532 11 0 0.0 4.8 0.00 0.51 0.03 83 1006.5
20260507063049 11 0 0.0 6.4 0.00 0.51 0.03 83 1006.6
20260507062530 11 0 0.0 8.0 0.00 0.51 0.03 84 1006.6
20260507062030 11 0 0.0 8.0 0.00 0.51 0.03 85 1006.6
20260507061544 11 360 1.6 8.0 0.00 0.51 0.03 85 1006.6
20260507061033 11 0 0.0 6.4 0.00 0.51 0.03 86 1006.4
20260507060530 11 0 0.0 6.4 0.00 0.51 0.03 87 1006.5
20260507060044 11 0 0.0 9.7 0.00 0.51 0.03 87 1006.6
20260507055531 12 360 0.0 9.7 0.00 0.51 0.03 87 1006.6
20260507055031 12 360 0.0 6.4 0.03 0.51 0.03 87 1006.6
20260507054543 12 360 0.0 6.4 0.03 0.51 0.03 88 1006.6
20260507054031 12 0 0.0 12.9 0.03 0.51 0.03 88 1006.7
20260507053530 12 0 0.0 12.9 0.03 0.51 0.03 88 1006.9
20260507053049 12 360 1.6 9.7 0.03 0.51 0.03 88 1006.9
20260507052531 12 0 0.0 8.0 0.03 0.51 0.03 88 1006.7
20260507052031 12 360 1.6 8.0 0.03 0.51 0.03 88 1006.7
20260507051539 12 0 0.0 3.2 0.03 0.51 0.03 88 1006.8
20260507051030 12 0 0.0 3.2 0.03 0.51 0.03 88 1006.5
20260507050530 12 0 0.0 3.2 0.03 0.51 0.03 88 1006.5
20260507050045 12 0 0.0 3.2 0.03 0.51 0.03 88 1006.7
20260507045531 12 0 0.0 3.2 0.03 0.51 0.03 88 1006.9
20260507045031 12 0 0.0 6.4 0.00 0.48 0.00 88 1006.9
20260507044546 12 0 0.0 6.4 0.00 0.48 0.00 88 1006.9
20260507044032 12 360 0.0 4.8 0.00 0.48 0.00 88 1006.7
20260507043532 13 360 0.0 4.8 0.00 0.48 0.00 88 1006.7
20260507043042 13 360 1.6 9.7 0.00 0.48 0.00 88 1006.6
20260507042533 14 0 0.0 9.7 0.00 0.48 0.00 89 1006.6
20260507042030 14 360 1.6 8.0 0.00 0.48 0.00 89 1006.5
20260507041548 14 360 1.6 8.0 0.03 0.48 0.00 89 1006.6
20260507041033 14 360 3.2 9.7 0.03 0.48 0.00 89 1006.5
20260507040532 14 360 3.2 16.1 0.03 0.48 0.00 89 1006.6
20260507040045 14 360 3.2 16.1 0.03 0.48 0.00 89 1006.6
20260507035531 14 360 1.6 8.0 0.03 0.48 0.48 89 1006.7
20260507035033 14 0 1.6 8.0 0.03 0.48 0.48 89 1006.5
20260507034546 14 360 1.6 14.5 0.03 0.48 0.48 89 1006.3
20260507034031 14 360 1.6 14.5 0.03 0.48 0.48 89 1006.2
20260507033532 14 360 6.4 17.7 0.03 0.48 0.48 89 1006.1
20260507033044 14 360 3.2 19.3 0.03 0.48 0.48 89 1006.2
20260507032533 15 360 8.0 19.3 0.03 0.48 0.48 89 1006.4
20260507032030 15 360 4.8 19.3 0.03 0.48 0.48 89 1006.2
20260507031541 15 360 6.4 16.1 0.00 0.46 0.46 89 1006.2
20260507031032 15 360 6.4 16.1 0.00 0.46 0.46 89 1005.9
20260507030530 15 360 3.2 14.5 0.00 0.46 0.46 89 1005.9
20260507030046 15 360 4.8 14.5 0.00 0.46 0.46 89 1005.7
20260507025530 15 0 4.8 17.7 0.00 0.46 0.46 89 1005.6
20260507025031 15 360 6.4 17.7 0.00 0.46 0.46 89 1005.7
20260507024554 15 360 4.8 12.9 0.00 0.46 0.46 89 1005.7
20260507024031 15 360 6.4 19.3 0.00 0.46 0.46 89 1005.8
20260507023541 15 360 6.4 19.3 0.00 0.46 0.46 89 1005.7
20260507023045 15 360 6.4 19.3 0.00 0.46 0.46 89 1005.8
20260507022531 15 360 3.2 19.3 0.00 0.46 0.46 89 1005.9
20260507022031 15 360 6.4 19.3 0.00 0.46 0.46 89 1005.8
20260507021545 15 360 6.4 17.7 0.00 0.46 0.46 89 1005.9
20260507021030 15 360 3.2 17.7 0.00 0.46 0.46 89 1005.8
20260507020530 14 360 3.2 17.7 0.00 0.46 0.46 89 1005.8
20260507020055 14 360 6.4 12.9 0.00 0.46 0.46 89 1005.8
20260507015531 14 360 3.2 14.5 0.00 0.46 0.46 89 1005.8
20260507015030 14 360 3.2 14.5 0.00 0.46 0.46 89 1005.9
20260507014554 14 360 3.2 12.9 0.00 0.46 0.46 89 1006.0
20260507014031 14 360 1.6 16.1 0.00 0.46 0.46 89 1006.0
20260507013529 14 360 1.6 16.1 0.00 0.46 0.46 89 1006.0
20260507013048 14 360 4.8 16.1 0.00 0.46 0.46 89 1005.9
20260507012533 14 360 4.8 19.3 0.00 0.46 0.46 89 1006.1
20260507012031 14 360 6.4 19.3 0.00 0.46 0.46 89 1006.1
20260507011544 14 360 4.8 19.3 0.00 0.46 0.46 89 1006.1
20260507011030 14 0 6.4 19.3 0.00 0.46 0.46 89 1006.1
20260507010530 14 360 4.8 19.3 0.00 0.46 0.46 89 1006.1
20260507010044 14 360 3.2 16.1 0.00 0.46 0.46 89 1006.2
20260507005532 14 360 4.8 14.5 0.00 0.46 0.46 89 1006.2
20260507005032 14 360 3.2 14.5 0.00 0.46 0.46 89 1006.2
20260507004550 14 360 4.8 17.7 0.00 0.46 0.46 89 1006.2
20260507004030 14 360 6.4 19.3 0.00 0.46 0.46 89 1006.1
20260507003530 14 360 4.8 19.3 0.00 0.46 0.46 89 1006.1
20260507003047 14 360 4.8 17.7 0.00 0.46 0.46 89 1006.2
20260507002530 14 360 3.2 17.7 0.03 0.46 0.46 89 1006.1
20260507002030 14 360 3.2 17.7 0.03 0.46 0.46 89 1006.2
20260507001547 14 360 6.4 17.7 0.05 0.46 0.46 89 1006.2
20260507001030 14 360 4.8 20.9 0.08 0.46 0.46 89 1006.2
20260507000532 15 360 4.8 20.9 0.10 0.46 0.46 89 1006.1
20260507000045 15 360 1.6 17.7 0.10 0.46 0.46 89 1006.0
20260506235532 15 360 4.8 17.7 0.10 0.46 0.46 89 1006.0
20260506235030 15 360 3.2 12.9 0.10 0.46 0.46 89 1006.0
20260506234550 15 360 3.2 17.7 0.10 0.46 0.46 89 1006.0
20260506234031 15 360 1.6 17.7 0.10 0.46 0.46 89 1006.1
20260506233531 15 0 1.6 14.5 0.10 0.46 0.46 89 1005.9
20260506233043 15 360 3.2 22.5 0.13 0.46 0.46 89 1006.0
20260506232532 15 360 6.4 22.5 0.10 0.43 0.43 88 1005.9
20260506232031 15 360 3.2 16.1 0.10 0.43 0.43 88 1005.8
20260506231551 15 360 3.2 19.3 0.08 0.41 0.41 88 1005.9
20260506231031 15 360 4.8 19.3 0.05 0.38 0.38 88 1005.9
20260506230531 15 360 4.8 14.5 0.03 0.36 0.36 88 1006.0
20260506230056 15 360 3.2 14.5 0.03 0.36 0.36 88 1005.9
20260506225535 15 360 3.2 14.5 0.03 0.36 0.36 88 1005.9
20260506225031 15 360 3.2 16.1 0.05 0.36 0.36 88 1006.0
20260506224546 15 360 3.2 16.1 0.05 0.36 0.36 88 1006.1
20260506224030 15 360 4.8 16.1 0.05 0.36 0.36 88 1006.0
20260506223534 15 360 3.2 12.9 0.05 0.36 0.36 88 1006.1
20260506223053 15 360 3.2 12.9 0.03 0.33 0.33 88 1006.2
20260506222531 15 360 4.8 12.9 0.03 0.33 0.33 87 1006.2
20260506222031 15 360 1.6 17.7 0.03 0.33 0.33 87 1006.3
20260506221544 15 360 4.8 17.7 0.03 0.33 0.33 87 1006.3
20260506221033 15 360 3.2 17.7 0.03 0.33 0.33 87 1006.4
20260506220535 15 360 3.2 24.1 0.03 0.33 0.33 87 1006.4
20260506220044 15 360 4.8 24.1 0.03 0.33 0.33 86 1006.3
20260506215536 15 360 6.4 20.9 0.03 0.33 0.33 86 1006.4
20260506215031 15 360 6.4 19.3 0.00 0.30 0.30 86 1006.6
20260506214544 15 360 6.4 19.3 0.00 0.30 0.30 86 1006.5
20260506214030 15 360 3.2 14.5 0.00 0.30 0.30 86 1006.6
20260506213532 15 360 4.8 12.9 0.03 0.30 0.30 86 1006.6
20260506213059 15 360 1.6 12.9 0.03 0.30 0.30 86 1006.6
20260506212531 15 0 0.0 12.9 0.03 0.30 0.30 86 1006.7
20260506212033 15 360 3.2 14.5 0.08 0.30 0.30 86 1006.6
20260506211549 15 360 4.8 24.1 0.13 0.30 0.30 85 1006.6
20260506211031 15 360 6.4 24.1 0.18 0.30 0.30 85 1006.7
20260506210531 15 360 8.0 22.5 0.20 0.30 0.30 85 1006.6
20260506210045 15 360 4.8 22.5 0.23 0.30 0.30 86 1006.6
20260506205531 15 360 4.8 20.9 0.23 0.30 0.30 85 1006.7
20260506205031 15 360 8.0 20.9 0.23 0.30 0.30 85 1006.7
20260506204550 15 360 3.2 25.7 0.25 0.30 0.30 85 1006.6
20260506204031 15 360 4.8 30.6 0.25 0.30 0.30 85 1007.0
20260506203532 16 360 12.9 30.6 0.23 0.28 0.28 85 1006.9
20260506203047 16 360 3.2 12.9 0.25 0.28 0.28 86 1006.9
20260506202531 16 360 3.2 12.9 0.23 0.25 0.25 85 1006.8
20260506202033 16 360 3.2 9.7 0.20 0.23 0.23 85 1006.7
20260506201555 16 360 3.2 9.7 0.18 0.18 0.18 84 1006.8
20260506201031 16 360 3.2 14.5 0.10 0.10 0.10 84 1006.7
20260506200531 16 360 4.8 14.5 0.10 0.10 0.10 84 1006.7
20260506200039 16 360 1.6 16.1 0.08 0.08 0.08 83 1006.8
20260506195532 16 360 4.8 16.1 0.08 0.08 0.08 82 1006.6
20260506195031 16 360 3.2 22.5 0.08 0.08 0.08 81 1006.6
20260506194546 17 360 4.8 24.1 0.05 0.05 0.05 80 1006.8
20260506194031 17 360 4.8 24.1 0.05 0.05 0.05 79 1006.9
20260506193531 17 360 8.0 20.9 0.05 0.05 0.05 78 1007.0
20260506193044 17 360 1.6 20.9 0.03 0.03 0.03 78 1007.0
20260506192530 17 360 4.8 17.7 0.03 0.03 0.03 76 1007.0
20260506192032 18 360 1.6 20.9 0.03 0.03 0.03 76 1007.0
20260506191547 18 360 6.4 20.9 0.00 0.00 0.00 73 1006.9
20260506191034 18 360 9.7 29.0 0.00 0.00 0.00 72 1007.1
20260506190532 18 360 11.3 32.2 0.00 0.00 0.00 70 1006.9
20260506190043 19 360 11.3 32.2 0.00 0.00 0.00 69 1006.8
20260506185532 19 360 8.0 30.6 0.00 0.00 0.00 67 1007.0
20260506185033 20 360 9.7 30.6 0.00 0.00 0.00 66 1007.2
20260506184542 20 360 11.3 27.4 0.00 0.00 0.00 65 1007.1
20260506184032 20 360 11.3 33.8 0.00 0.00 0.00 64 1007.1
20260506183531 20 360 11.3 33.8 0.00 0.00 0.00 62 1007.1
20260506183050 20 360 12.9 33.8 0.00 0.00 0.00 61 1007.0
20260506182530 21 360 11.3 27.4 0.00 0.00 0.00 60 1007.0
20260506182030 21 360 9.7 27.4 0.00 0.00 0.00 57 1007.1
20260506181544 21 360 8.0 27.4 0.00 0.00 0.00 56 1007.1
20260506181032 21 360 4.8 20.9 0.00 0.00 0.00 54 1007.2
20260506180534 21 360 8.0 32.2 0.00 0.00 0.00 54 1007.1
20260506180049 21 360 9.7 32.2 0.00 0.00 0.00 54 1007.2
20260506175532 22 360 8.0 33.8 0.00 0.00 0.00 53 1007.2
20260506175030 22 217 11.3 33.8 0.00 0.00 0.00 53 1007.2
20260506174545 22 238 11.3 32.2 0.00 0.00 0.00 53 1007.2
20260506174030 22 360 9.7 22.5 0.00 0.00 0.00 54 1007.3
20260506173532 22 277 3.2 20.9 0.00 0.00 0.00 55 1007.3
20260506173050 22 186 6.4 27.4 0.00 0.00 0.00 55 1007.4
20260506172531 22 360 4.8 27.4 0.00 0.00 0.00 56 1007.4
20260506172031 22 168 3.2 19.3 0.00 0.00 0.00 57 1007.4
20260506171542 22 278 6.4 19.3 0.00 0.00 0.00 58 1007.4
20260506171033 22 247 9.7 19.3 0.00 0.00 0.00 57 1007.5
20260506170530 22 231 3.2 17.7 0.00 0.00 0.00 58 1007.5
20260506170108 21 187 8.0 25.7 0.00 0.00 0.00 58 1007.5
20260506165532 21 360 11.3 25.7 0.00 0.00 0.00 58 1007.5
20260506165031 21 249 9.7 24.1 0.00 0.00 0.00 58 1007.7
20260506164545 21 218 4.8 27.4 0.00 0.00 0.00 58 1007.7
20260506164034 21 185 9.7 27.4 0.00 0.00 0.00 58 1007.8
20260506163530 21 360 6.4 19.3 0.00 0.00 0.00 57 1007.8
20260506163054 21 252 3.2 19.3 0.00 0.00 0.00 58 1007.8
20260506162531 21 151 6.4 20.9 0.00 0.00 0.00 56 1007.9
20260506162033 21 209 8.0 20.9 0.00 0.00 0.00 56 1008.1
20260506161544 21 196 6.4 20.9 0.00 0.00 0.00 55 1008.1
20260506161031 21 360 8.0 24.1 0.00 0.00 0.00 56 1008.2
20260506160531 21 217 8.0 24.1 0.00 0.00 0.00 56 1008.4
20260506160043 21 292 9.7 25.7 0.00 0.00 0.00 56 1008.4
20260506155531 21 360 11.3 25.7 0.00 0.00 0.00 55 1008.5
20260506155031 21 360 9.7 24.1 0.00 0.00 0.00 56 1008.7
20260506154544 21 360 6.4 25.7 0.00 0.00 0.00 55 1008.7
20260506154031 22 360 9.7 25.7 0.00 0.00 0.00 56 1008.7
20260506153531 22 360 8.0 22.5 0.00 0.00 0.00 56 1008.7
20260506153046 22 360 9.7 19.3 0.00 0.00 0.00 57 1008.9
20260506152531 22 360 6.4 19.3 0.00 0.00 0.00 58 1008.9
20260506152033 22 360 4.8 19.3 0.00 0.00 0.00 57 1008.9
20260506151546 22 360 4.8 20.9 0.00 0.00 0.00 58 1009.0
20260506151030 21 78 4.8 22.5 0.00 0.00 0.00 59 1008.9
20260506150531 21 360 9.7 22.5 0.00 0.00 0.00 60 1009.0
20260506150044 21 225 9.7 19.3 0.00 0.00 0.00 61 1009.2
20260506145535 21 360 6.4 24.1 0.00 0.00 0.00 62 1009.3
20260506145032 21 360 9.7 24.1 0.00 0.00 0.00 62 1009.3
20260506144558 20 360 8.0 24.1 0.00 0.00 0.00 62 1009.2
20260506144032 20 42 8.0 24.1 0.00 0.00 0.00 63 1009.0
20260506143532 20 360 6.4 24.1 0.00 0.00 0.00 64 1009.1
20260506143041 20 360 8.0 25.7 0.00 0.00 0.00 64 1009.3
20260506142531 20 360 9.7 25.7 0.00 0.00 0.00 64 1009.1
20260506142033 20 360 8.0 22.5 0.00 0.00 0.00 65 1009.1
20260506141540 20 112 8.0 24.1 0.00 0.00 0.00 65 1009.1
20260506141034 20 360 8.0 24.1 0.00 0.00 0.00 65 1009.1
20260506140534 20 360 6.4 17.7 0.00 0.00 0.00 66 1009.3
20260506140048 20 360 6.4 17.7 0.00 0.00 0.00 67 1009.2
20260506135531 20 360 4.8 17.7 0.00 0.00 0.00 67 1009.3
20260506135031 19 360 4.8 24.1 0.00 0.00 0.00 68 1009.4
20260506134545 18 360 6.4 24.1 0.00 0.00 0.00 69 1009.4
20260506134035 18 360 3.2 17.7 0.00 0.00 0.00 69 1009.5
20260506133531 18 360 4.8 17.7 0.00 0.00 0.00 70 1009.7
20260506133045 18 360 4.8 20.9 0.00 0.00 0.00 71 1009.7
20260506132531 18 360 6.4 20.9 0.00 0.00 0.00 71 1009.9
20260506132037 18 360 4.8 20.9 0.00 0.00 0.00 72 1009.9
20260506131545 18 360 6.4 20.9 0.00 0.00 0.00 71 1009.9
20260506131031 18 360 4.8 19.3 0.00 0.00 0.00 71 1009.9
20260506130533 18 360 6.4 19.3 0.00 0.00 0.00 72 1009.8
20260506130058 18 360 4.8 16.1 0.00 0.00 0.00 72 1009.8
20260506125531 17 360 6.4 17.7 0.00 0.00 0.00 72 1009.8
20260506125031 18 360 8.0 27.4 0.00 0.00 0.00 71 1009.8
20260506124543 18 360 9.7 27.4 0.00 0.00 0.00 71 1009.7
20260506124031 18 360 8.0 24.1 0.00 0.00 0.00 73 1009.7
20260506123531 17 360 6.4 22.5 0.00 0.00 0.00 74 1010.0
20260506123048 17 360 6.4 22.5 0.00 0.00 0.00 74 1009.9
20260506122531 17 360 8.0 22.5 0.00 0.00 0.00 74 1010.1
20260506122030 17 360 9.7 20.9 0.00 0.00 0.00 74 1010.2
20260506121549 17 360 4.8 19.3 0.00 0.00 0.00 74 1010.1
20260506121031 17 360 8.0 19.3 0.00 0.00 0.00 74 1009.9
20260506120535 17 360 8.0 19.3 0.00 0.00 0.00 75 1009.9
20260506120045 16 360 3.2 17.7 0.00 0.00 0.00 76 1010.0
20260506115535 16 360 6.4 17.7 0.00 0.00 0.00 75 1010.2
20260506115035 16 360 4.8 16.1 0.00 0.00 0.00 75 1010.2
20260506114544 16 360 6.4 16.1 0.00 0.00 0.00 75 1010.1
20260506114032 16 360 3.2 17.7 0.00 0.00 0.00 75 1010.1
20260506113534 16 360 4.8 17.7 0.00 0.00 0.00 75 1010.3
20260506113042 16 360 4.8 22.5 0.00 0.00 0.00 76 1010.5
20260506112536 16 360 3.2 22.5 0.00 0.00 0.00 75 1010.4
20260506112034 16 360 8.0 20.9 0.00 0.00 0.00 75 1010.3
20260506111540 16 360 4.8 17.7 0.00 0.00 0.00 75 1010.1
20260506111035 16 360 6.4 20.9 0.00 0.00 0.00 75 1010.1
20260506110533 16 360 4.8 20.9 0.00 0.00 0.00 76 1010.1
20260506110048 16 360 4.8 16.1 0.00 0.00 0.00 76 1010.2
20260506105534 16 360 6.4 19.3 0.00 0.00 0.00 77 1010.2
20260506105035 16 360 4.8 19.3 0.00 0.00 0.00 77 1010.3
20260506104545 15 360 4.8 27.4 0.00 0.00 0.00 77 1010.3
20260506104034 16 0 3.2 27.4 0.00 0.00 0.00 77 1010.2
20260506103535 16 360 4.8 16.1 0.00 0.00 0.00 77 1010.2
20260506103051 16 360 3.2 16.1 0.00 0.00 0.00 76 1010.3
20260506102532 16 360 4.8 16.1 0.00 0.00 0.00 76 1010.3
20260506102035 16 360 4.8 16.1 0.00 0.00 0.00 76 1010.3
20260506101544 16 360 3.2 12.9 0.00 0.00 0.00 76 1010.2
20260506101034 16 360 4.8 12.9 0.00 0.00 0.00 76 1010.2
20260506100533 16 360 3.2 14.5 0.00 0.00 0.00 76 1010.1
20260506100051 16 360 3.2 17.7 0.00 0.00 0.00 76 1010.2
20260506095531 16 360 4.8 17.7 0.00 0.00 0.00 76 1010.1
20260506095031 16 360 4.8 17.7 0.00 0.00 0.00 76 1009.9
20260506094542 16 360 4.8 12.9 0.00 0.00 0.00 76 1009.9
20260506094034 15 360 3.2 16.1 0.00 0.00 0.00 76 1010.0
20260506093531 15 360 4.8 16.1 0.00 0.00 0.00 76 1010.1
20260506093045 15 360 4.8 16.1 0.00 0.00 0.00 76 1010.1
20260506092535 15 0 1.6 14.5 0.00 0.00 0.00 76 1010.2
20260506092035 16 360 4.8 14.5 0.00 0.00 0.00 76 1010.1
20260506091545 15 360 3.2 14.5 0.00 0.00 0.00 76 1010.0
20260506091035 16 360 3.2 16.1 0.00 0.00 0.00 75 1010.0
20260506090534 16 360 3.2 16.1 0.00 0.00 0.00 75 1010.0
20260506090049 16 360 1.6 25.7 0.00 0.00 0.00 75 1009.9
20260506085530 16 360 4.8 25.7 0.00 0.00 0.00 74 1010.1
20260506085031 16 360 4.8 16.1 0.00 0.00 0.00 74 1010.2
20260506084559 16 360 3.2 19.3 0.00 0.00 0.00 74 1010.1
20260506084031 16 360 4.8 19.3 0.00 0.00 0.00 74 1010.1
20260506083532 16 360 6.4 19.3 0.00 0.00 0.00 73 1010.1
20260506083043 16 360 6.4 17.7 0.00 0.00 0.00 73 1010.0
20260506082532 16 360 6.4 20.9 0.00 0.00 0.00 73 1010.0
20260506082031 16 360 8.0 20.9 0.00 0.00 0.00 73 1010.0
20260506081542 16 360 4.8 17.7 0.00 0.00 0.00 73 1009.9
20260506081031 16 360 4.8 19.3 0.00 0.00 0.00 72 1009.9
20260506080531 16 360 6.4 22.5 0.00 0.00 0.00 72 1009.9
20260506073053 17 360 4.8 16.1 0.00 0.00 0.00 70 1009.7
20260506072532 17 360 6.4 19.3 0.00 0.00 0.00 70 1009.7
20260506072031 17 360 4.8 19.3 0.00 0.00 0.00 69 1009.6